Regional Weather Roundup
Issued by NWS

Home | Current Version | Previous Version | Text Only | Print | Product List | Glossary On
Versions: 1 2 3 4 5 6 7 8 9 10 11 12 13 14 15 16 17 18 19 20 21 22 23 24 25 26 27
000
ASPQ40 PGUM 242312
RWRPQ
WEATHER ROUNDUP FOR THE MARIANAS AND MICRONESIA
NATIONAL WEATHER SERVICE TIYAN GU
900 AM GSST FRI APR 25 2014

GUZ001>004-250000-
MARIANA ISLANDS-

CITY           SKY/WX    TMP DP  RH WIND       PRES   REMARKS
GUAM AIRPORT   MOSUNNY   84  73  70 E16G24    29.87R HX  91
ANDERSEN AFB   MOSUNNY   82  73  74 E14       29.87R
ROTA AIRPORT   MOSUNNY   82  73  74 E16G23    29.88R
TINIAN AP      MOSUNNY   82  73  74 E13       29.86R
SAIPAN AP      MOSUNNY   82  73  74 E20       29.87R

$$

PMZ161-250000-
REPUBLIC OF PALAU-

CITY           SKY/WX    TMP DP  RH WIND       PRES   REMARKS
KOROR AP       PTSUNNY   84  77  79 NE6       29.83R HX  94
KOROR WSO      CLOUDY    84  77  79 E3        29.84S HX  94

$$

PMZ171>174-250000-
FEDERATED STATES OF MICRONESIA-

CITY           SKY/WX    TMP DP  RH WIND       PRES   REMARKS
YAP AIRPORT    MOSUNNY   86  75  70 VRB6      29.84R HX  95
CHUUK AP       CLOUDY    84  79  84 VRB6      29.79R HX  96
POHNPEI AP     CLOUDY    88  77  70 E12       29.77S HX 100
POHNPEI WSO    CLOUDY    84  77  79 E9        29.83S HX  94
KOSRAE AP      PTSUNNY   86  77  74 E7        29.77S HX  97

$$

PMZ181-250000-
REPUBLIC OF THE MARSHALL ISLANDS-

CITY           SKY/WX    TMP DP  RH WIND       PRES   REMARKS
KWAJALEIN AP   MOSUNNY   86  75  70 E20       29.83S HX  95
MAJURO AP      MOSUNNY   86  75  70 NE17      29.79  HX  95
MAJURO WSO     PTSUNNY   86  77  74 NE13      29.80F HX  97

$$




USA.gov is the U.S. government's official web portal to all federal, state and local government web resources and services.